STARLINK-31471, 59568

Orbit data source: Space-Track

STARLINK-31471, 59568 is a payload satellite owned by SpaceX/Seattle (US) in LEO that was launched on Tue, 23 Apr 2024 UTC via an FALCON 9 launch vehicle from the Air Force Eastern Test Range (AFETR). Payload-class satellites include a variety of spacecraft equipped with specific instruments for various scientific and technological missions. These include communications satellites like Starlink; space stations such as the ISS; scientific satellites like the Hubble; Earth observation satellites from companies like Planet Labs, Umbra, and HawkEye 360; GPS; miniature CubeSats for education and research; and military/defense satellites.

Loading next visibility...
Identifier
59568, 2024-076E
Orbit
LEO
Country
Flag of USUS
Related business
Manufacturer
SpaceX/Seattle
Mission
Operational spacecraft
Bus & Motor
STARLINK V2M, Unknown motor
Mass
730 kg wet, ~700 kg dry
Launch date (UTC)
2024-04-23 (1 year ago)
Launch vehicle
FALCON 9
Launch site
Air Force Eastern Test Range (AFETR)
Object type
Payload
Rocket body
Debris
Shape & HBR
Unknown
Radar Cross Section
Large (>1 m²)

Expand to show TLE details & history
Last TLE update: 21 hours ago

TLE from 21 hours ago
0 STARLINK-31471
1 59568U 24076E   25257.47086562 -.00124019  00000-0 -44468-2 0  9998
2 59568  43.0021 284.0764 0001038 248.4024 111.6718 15.28494006 79462
Epoch: 2025-09-14T11:18Z
TLE epoch observation values (Epoch: 2025-09-14T11:18:02.789Z)
Latitude
0.00001°
Longitude
120.87539°
Altitude
480.352 km
Speed
7.627 km/s
True Right ascension
18h 56m 18s
True Declination
0° 00' 00"
Sunlit
Object was in partial shadow at epoch
Visualization orbit readout
Latitude
Unknown
Longitude
Unknown
Altitude
Unknown
Speed
Unknown
Apparent Right ascension
Unknown
Apparent Declination
Unknown
Sunlit
N/A
Visualization observer readout
Local Sidereal Time
00:38:30
Azimuth
Unknown
Elevation
Unknown
Doppler factor
Unknown
Orbital elements
Apogee altitude
482.971 km
Perigee altitude
481.547 km
Semi-major axis
6,860.396 km
Eccentricity
0.0001
Inclination
43.0021°
RAAN
284.0764°
Arg. of periapsis
248.4024°
True anomaly
111.68285°
Mean anomaly
111.6718°
Eccentric anomaly
111.67733°
Mean motion
3.81961 °/min
Orbital period
94.25 mins
BSTAR
-0.0044468
Loading maneuver chart data...
Computing Atmospheric mass density...
Loading historical data...
Loading historical data...
Loading historical data...
Loading historical data...
Loading historical data...
Loading historical data...
Loading historical data...

Documentation

Showing up to 5 results
|